This is the latest recevied weather packets stored in our database for station/object LU8FJH-13. If no packets are shown the sender has not sent any weather packets the latest 10 day(s).
| Time | Temp. | Humidity | Pressure | Rain* | Wind** | Luminosity | Snow |
|---|---|---|---|---|---|---|---|
| 1778001720 | 27.22° C | 69% | 1010.6 hPa | 0 mm | - | - | - |
| 1778001180 | 27.22° C | 70% | 1010.7 hPa | 0 mm | - | - | - |
| 1778000640 | 26.67° C | 70% | 1010.8 hPa | 0 mm | - | - | - |
| 1778000100 | 27.78° C | 69% | 1010.9 hPa | 0 mm | - | - | - |
| 1777999560 | 26.67° C | 71% | 1011 hPa | 0 mm | - | - | - |
| 1777999020 | 26.11° C | 73% | 1010.8 hPa | 0 mm | - | - | - |
| 1777998480 | 25.56° C | 75% | 1011.2 hPa | 0 mm | - | - | - |
| 1777997940 | 25.56° C | 75% | 1011.3 hPa | 0 mm | - | - | - |
| 1777997400 | 25° C | 77% | 1011.3 hPa | 0 mm | - | - | - |
| 1777996860 | 24.44° C | 79% | 1011.4 hPa | 0 mm | - | - | - |
| 1777996320 | 23.89° C | 80% | 1011.6 hPa | 0 mm | - | - | - |
| 1777995780 | 23.89° C | 80% | 1011.5 hPa | 0 mm | - | - | - |
| 1777995240 | 23.89° C | 80% | 1011.5 hPa | 0 mm | - | - | - |
| 1777994700 | 23.33° C | 81% | 1011.4 hPa | 0 mm | - | - | - |
| 1777994160 | 23.33° C | 82% | 1011.7 hPa | 0 mm | - | - | - |
| 1777993620 | 23.33° C | 83% | 1011.7 hPa | 0 mm | - | - | - |
| 1777993080 | 22.78° C | 83% | 1011.8 hPa | 0 mm | - | - | - |
| 1777992540 | 22.78° C | 84% | 1012 hPa | 0 mm | - | - | - |
| 1777992000 | 22.22° C | 83% | 1012.2 hPa | 0 mm | - | - | - |
| 1777991460 | 22.22° C | 83% | 1012.3 hPa | 0 mm | - | - | - |
| 1777990920 | 22.22° C | 82% | 1012.3 hPa | 0 mm | - | - | - |
| 1777990380 | 22.22° C | 82% | 1012.4 hPa | 0 mm | - | - | - |
| 1777989840 | 22.22° C | 81% | 1012.4 hPa | 0 mm | - | - | - |
| 1777989300 | 22.22° C | 79% | 1012.4 hPa | 0 mm | - | - | - |
| 1777988760 | 22.22° C | 79% | 1012.6 hPa | 0 mm | - | - | - |
* Rain latest hour (hover to see other rain measurements)
** Current wind speed in m/s (hover to see current wind gust speed)